This is the latest recevied weather packets stored in our database for station/object NK0Z-13. If no packets are shown the sender has not sent any weather packets the latest 10 day(s).
| Time | Temp. | Humidity | Pressure | Rain* | Wind** | Luminosity | Snow |
|---|---|---|---|---|---|---|---|
| 1777627678 | 2.22° C | 94% | 1021.7 hPa | 0 mm | - | 0 W/m² | - |
| 1777627075 | 2.22° C | 93% | 1021.7 hPa | 0 mm | - | 0 W/m² | - |
| 1777626473 | 2.22° C | 93% | 1021.9 hPa | 0 mm | - | 0 W/m² | - |
| 1777625872 | 2.22° C | 93% | 1021.9 hPa | 0 mm | - | 0 W/m² | - |
| 1777625269 | 2.22° C | 93% | 1021.8 hPa | 0 mm | - | 0 W/m² | - |
| 1777624669 | 2.22° C | 93% | 1021.6 hPa | 0 mm | - | 0 W/m² | - |
| 1777624067 | 2.78° C | 93% | 1021.6 hPa | 0 mm | - | 0 W/m² | - |
| 1777623466 | 2.78° C | 93% | 1021.8 hPa | 0 mm | - | 0 W/m² | - |
| 1777622867 | 2.78° C | 93% | 1021.6 hPa | 0 mm | - | 0 W/m² | - |
| 1777622266 | 2.78° C | 93% | 1021.7 hPa | 0 mm | - | 0 W/m² | - |
| 1777621664 | 2.78° C | 92% | 1022 hPa | 0 mm | - | 0 W/m² | - |
| 1777621061 | 3.33° C | 91% | 1021.8 hPa | 0 mm | - | 0 W/m² | - |
| 1777620459 | 3.89° C | 91% | 1021.9 hPa | 0 mm | - | 0 W/m² | - |
| 1777619859 | 3.89° C | 91% | 1022.1 hPa | 0 mm | - | 0 W/m² | - |
| 1777619256 | 3.89° C | 90% | 1021.8 hPa | 0 mm | - | 0 W/m² | - |
| 1777618652 | 3.89° C | 89% | 1022.2 hPa | 0 mm | - | 0 W/m² | - |
| 1777618051 | 4.44° C | 88% | 1022.2 hPa | 0 mm | - | 0 W/m² | - |
| 1777617446 | 5° C | 87% | 1022.1 hPa | 0 mm | - | 0 W/m² | - |
| 1777616840 | 5° C | 87% | 1022.3 hPa | 0 mm | - | 0 W/m² | - |
| 1777616236 | 5.56° C | 86% | 1022.2 hPa | 0 mm | - | 0 W/m² | - |
| 1777615637 | 5.56° C | 86% | 1022.2 hPa | 0 mm | - | 0 W/m² | - |
| 1777615032 | 5.56° C | 86% | 1022.3 hPa | 0 mm | - | 0 W/m² | - |
| 1777614430 | 6.67° C | 85% | 1022 hPa | 0 mm | - | 0 W/m² | - |
| 1777613827 | 6.11° C | 87% | 1022.1 hPa | 0 mm | - | 0 W/m² | - |
| 1777613226 | 6.11° C | 85% | 1022 hPa | 0 mm | - | 0 W/m² | - |
* Rain latest hour (hover to see other rain measurements)
** Current wind speed in m/s (hover to see current wind gust speed)